Location: North Runcton
(52.7000°N, 0.4333°E)
Time: 19:40:43
(UTC+00:00)

Cosmos 2333 Rocket - Pass Details

Date: 19 May 2025
Orbit: 840 x 862 km, 70.8° (Epoch: 23 June)

Event Time Altitude Azimuth Distance (km) Brightness Sun altitude
Rises 22:02:28 0° 328° (NNW) 3,445 7.4 -13.3°
Reaches altitude 10° 22:05:10 10° 337° (NNW) 2,502 6.1 -13.5°
Maximum altitude 22:10:25 35° 43° (NE) 1,346 3.5 -13.9°
Drops below altitude 10° 22:15:37 10° 109° (ESE) 2,477 4.2 -14.2°
Enters shadow 22:15:53 - 110° (ESE) 2,569 4.3 -14.2°
